Weather in Oktyabrsky

Russia / Sverdlovsk Oblast     56°38′22″N   60°48′56″E
temp.,
°C
wind,
m/s
gust,
m/s
humid.,
%
clouds,
%
prec.,
mm/h
press.,
hPa
HPBL,
m
9 may, sun
sun923:00+12nne2277100 0.3 101755
02:00+11nne2273100 0.0 101625
05:00+11nnw2277100 0.2 101634
08:00+14n1261100 0.0 1016201
11:00+20ne233459 0.0 10161051
14:00+20ene2429100 0.0 10162104
17:00+19nnw2539100 0.0 1017440
20:00+16ne2252100 0.0 101838
10 may, mon
mon1023:00+12ne226182 0.0 101931
02:00+12ene1166100 0.0 102112
05:00+11ene117299 0.1 102212
08:00+15ese255023 0.0 1023405
11:00+18e4537100 0.0 10241210
14:00+21e452869 0.0 10232017
17:00+20ese44275 0.0 10241947
20:00+16ese26400 0.0 1025168
11 may, tue
tue1123:00+11sse22520 0.0 102715
02:00+9s11535 0.0 102710
05:00+8ssw115740 0.0 102810
08:00+14s234070 0.0 1028269
11:00+18s2228100 0.0 10291160
14:00+20ssw1125100 0.0 10281569
17:00+20w122696 0.0 10281593
20:00+17ssw11385 0.0 102811
12 may, wed
wed1223:00+13sw22465 0.0 102820
02:00+12wnw2558100 0.0 102978
05:00+11nw1185100 0.0 102931
08:00+16nnw246777 0.0 1029452
11:00+20nnw344548 0.0 10291482
14:00+22n343165 0.0 10281981
17:00+23nnw353112 0.0 10282142
20:00+19nnw224878 0.0 102827
13 may, thu
thu1323:00+14nw22659 0.0 102914
02:00+12nw227430 0.0 102914
05:00+12wnw1176100 0.0 102914
08:00+18wnw245579 0.0 1029328
11:00+22nw354187 0.0 10281645
14:00+25nnw463170 0.0 10272170
17:00+26nnw46306 0.0 10262277
20:00+22nnw224553 0.0 102736